Regional Weather Roundup
Issued by NWS

Home | Current Version | Previous Version | Graphics & Text | Print | Product List | Glossary On
Versions: 1 2 3 4 5 6 7 8 9 10 11 12 13 14 15 16 17 18 19 20 21 22 23 24 25 26 27 28 29 30 31 32 33 34 35 36 37 38 39 40 41 42 43 44 45 46 47 48 49 50
000
ASUS44 KMEG 081010
RWRTN
TENNESSEE HOURLY STATE WEATHER ROUNDUP
NATIONAL WEATHER SERVICE MEMPHIS TN
400 AM CST MON FEB 08 2016

TNZ002-004-019-021-049-052-054-088>092-081100-
WEST TENNESSEE

CITY           SKY/WX    TMP DP  RH WIND       PRES   REMARKS
MEMPHIS INTL   CLEAR     44  24  45 W12       29.93S
NWS MEMPHIS      N/A     44 N/A N/A MISG        N/A
JACKSON        CLEAR     42  24  49 W10       29.86F
DYERSBURG      CLEAR     41  21  45 W12G21    29.88F
UNION CITY     CLEAR     39  25  56 W10       29.82S WCI  32
PARIS          CLEAR     37  25  60 W9        29.80F WCI  31
$$

TNZ008-025-027-028-033-062-065-066-081100-
NORTH MIDDLE TENNESSEE

CITY           SKY/WX    TMP DP  RH WIND       PRES   REMARKS
NASHVILLE      MOCLDY    41  28  60 S6        29.80F
CLARKSVILLE    PTCLDY    41  29  62 W8        29.78F
SMYRNA         PTCLDY    40  30  67 S5        29.82F
COOKEVILLE       N/A     43  30  61 NW7       29.79S
CROSSVILLE     CLOUDY    41  27  57 W13       29.79R
$$

TNZ061-075-076-078-094-096-097-081100-
SOUTH MIDDLE TENNESSEE

CITY           SKY/WX    TMP DP  RH WIND       PRES   REMARKS
FAYETTEVILLE   CLOUDY    43  32  65 W3        29.84S
TULLAHOMA      MOCLDY    37  27  65 SW5       29.83F WCI  34
WINCHESTER     CLOUDY    41  28  60 W5        29.84F
MCMINNVILLE    MOCLDY    39  28  65 SW3       29.82S
COLUMBIA       MOCLDY    41  36  81 SW6       29.81S
SHELBYVILLE    CLOUDY    43  32  65 SW3       29.83F
$$

TNZ017-018-042-046-047-081100-
NORTHEAST TENNESSEE

CITY           SKY/WX    TMP DP  RH WIND       PRES   REMARKS
TRI CITIES     PTCLDY    26  23  88 CALM      29.79F
$$

TNZ012-013-036-069-073-074-081100-
CENTRAL EAST TENNESSEE

CITY           SKY/WX    TMP DP  RH WIND       PRES   REMARKS
KNOXVILLE      CLOUDY    40  23  50 SW9       29.78F WCI  34
OAK RIDGE      CLOUDY    35  28  75 CALM      29.80F
GATLINBURG     SUNNY     34  23  64 CALM      29.78F
MORRISTOWN     CLOUDY    32  23  69 SE3       29.77F
$$

TNZ083-085-099-081100-
SOUTHEAST TENNESSEE

CITY           SKY/WX    TMP DP  RH WIND       PRES   REMARKS
CHATTANOOGA    MOCLDY    43  26  51 SW8       29.83F
$$

SKY/WX REPORTED AS FAIR MEANS FEW OR NO CLOUDS BELOW
12 THOUSAND FEET.




USA.gov is the U.S. government's official web portal to all federal, state and local government web resources and services.